Simultaneous Nadir Overpasses (SNOs) Predictions

Prediction of SNOs between AURA and NPP Satellite Orbit:

Table of predicted SNOs for the next 14.0 days since TLE Epoch: 8/7/2015
Index Date (AURA) Time (AURA) Lat,Lon (AURA) SZA (AURA ) Date (NPP) Time (NPP) Lat,Lon (NPP) SZA (NPP ) Distance(km) Time Diff (sec)
1 08/10/2015 08:57:23 78.48, -63.62 78.74 08/10/2015 08:56:47 78.47, -63.73 78.79 2.55 36
2 08/10/2015 09:46:39 -78.95, 106.61 101.90 08/10/2015 09:47:20 -78.95, 106.56 101.92 1.26 41
3 08/13/2015 01:13:44 78.79, 53.95 79.08 08/13/2015 01:13:31 78.80, 54.04 79.07 2.14 13
4 08/13/2015 02:03:06 -79.01,-137.14 101.23 08/13/2015 02:04:11 -79.00,-137.27 101.25 3.12 65
5 08/15/2015 16:40:57 -78.36, -0.12 99.57 08/15/2015 16:39:51 -78.35, -0.16 99.51 1.01 66
6 08/15/2015
